[[{"header":{"parameterUnit":"m.s-1","parameterCategory":2,"la1":30.2991,"la2":30.254,"lo1":-89.0895,"lo2":-89.0444,"dy":0.0017,"dx":0.0017,"nx":28,"ny":28,"refTime":"2023-04-16T21:00:00:Z","depth":"0","parameterNumber":2,"parameterNumberName":"U-component_of_CURRENTS"},"data":[0,0,0,0,0,0,0,0,0,0,0,0,0,0,0,0,0,0,0,0,0,0,0,0,0,0,0,0,0,0,0,0,0,0,0,0,0,0,0,0,0,0,0,0,0,0,0,0,0,0,0,0,0,0,0,0,0,0,-0.0268,-0.0269,0,-0.0295,-0.0295,-0.0295,-0.0238,-0.0236,-0.0235,-0.0233,-0.0203,-0.0204,-0.0204,0,0,0,0,0,0,0,0,0,0,0,0,0,-0.0153,-0.0155,-0.0268,-0.0269,-0.027,-0.0295,-0.0295,-0.0296,-0.0238,-0.0236,-0.0234,-0.0233,-0.0203,-0.0204,-0.0205,0,0,0,0,0,0,0,0,0,0,0,0,0,-0.0191,-0.0156,-0.0268,-0.0246,-0.0245,-0.0295,-0.0295,-0.0296,-0.0239,-0.0236,-0.0234,-0.0232,-0.0203,-0.0204,-0.0205,-0.026,0,0,-0.0208,-0.0208,0,0,0,0,0,0,0,0,-0.0189,-0.0195,-0.0249,-0.0248,-0.0246,-0.0263,-0.0244,-0.0282,-0.0239,-0.0238,-0.0233,-0.0231,-0.0221,-0.0221,-0.0228,-0.0258,-0.0257,-0.0208,-0.0209,-0.0209,-0.0209,0,0,0,0,0,0,0,-0.0187,-0.0194,-0.0276,-0.025,-0.0248,-0.023,-0.0233,-0.0251,-0.024,-0.0238,-0.0235,-0.0243,-0.0219,-0.0228,-0.0227,-0.0256,-0.0208,-0.0209,-0.021,-0.021,-0.0323,-0.0326,0,0,0,0,0,0,-0.0193,-0.0192,-0.0276,-0.0277,-0.0214,-0.0234,-0.0237,-0.0258,-0.0241,-0.0237,-0.0245,-0.024,-0.0227,-0.0226,-0.0226,-0.0293,-0.0209,-0.021,-0.0211,-0.0321,-0.0324,-0.0326,0,0,0,0,0,0,-0.0191,-0.0201,-0.0275,-0.0236,-0.0244,-0.0239,-0.0263,-0.026,-0.0268,-0.0247,-0.0241,-0.0256,-0.0225,-0.0224,-0.0257,-0.0291,-0.021,-0.0211,-0.0318,-0.0322,-0.0325,-0.0426,0,0,0,0,0,0,-0.0187,-0.02,-0.0224,-0.0237,-0.0247,-0.032,-0.0266,-0.0262,-0.0278,-0.0272,-0.0255,-0.025,-0.0223,-0.0256,-0.0258,-0.0291,-0.0212,-0.0315,-0.032,-0.0324,-0.042,-0.0433,-0.0444,0,0,0,0,0,-0.0183,-0.0234,-0.0225,-0.0235,-0.0278,-0.0322,-0.0327,-0.0311,-0.0281,-0.0305,-0.0292,-0.025,-0.0285,-0.026,-0.0261,-0.0295,-0.0313,-0.0318,-0.0324,-0.0415,-0.043,-0.0444,0,0,0,0,0,0,-0.0208,-0.0234,-0.0224,-0.0282,-0.0304,-0.0314,-0.0341,-0.0326,-0.0336,-0.0326,-0.029,-0.0287,-0.0325,-0.0307,-0.028,-0.0342,-0.0289,-0.0295,-0.0358,-0.0372,-0.0384,-0.0384,-0.0213,0,0,0,0,0,-0.0224,-0.0263,-0.0281,-0.0331,-0.0344,-0.0343,-0.0359,-0.035,-0.0359,-0.0359,-0.0349,-0.0342,-0.0353,-0.0358,-0.0364,-0.0411,-0.0396,-0.0432,-0.0444,-0.0454,-0.0457,-0.0472,-0.0485,-0.0344,-0.0344,-0.0344,0,0,-0.025,-0.0269,-0.0292,-0.0337,-0.035,-0.0393,-0.0347,-0.0384,-0.0415,-0.0358,-0.0401,-0.0388,-0.0376,-0.0419,-0.0433,-0.0405,-0.0493,-0.0461,-0.0469,-0.0467,-0.0479,-0.0493,-0.0505,-0.0348,-0.0347,-0.0346,0,0,-0.0323,-0.0337,-0.0389,-0.0412,-0.0441,-0.0443,-0.0457,-0.0475,-0.0475,-0.0521,-0.0482,-0.0496,-0.0517,-0.0513,-0.0513,-0.0602,-0.0556,-0.06,-0.0661,-0.0677,-0.0688,-0.0698,-0.0718,-0.0728,-0.0605,-0.0605,-0.0605,0,-0.035,-0.0418,-0.0414,-0.0467,-0.0492,-0.0469,-0.0526,-0.0539,-0.0563,-0.0573,-0.0547,-0.0576,-0.0564,-0.0606,-0.063,-0.0628,-0.0627,-0.0605,-0.0691,-0.07,-0.0708,-0.0726,-0.0736,-0.0611,-0.061,-0.0609,-0.0609,0,-0.0457,-0.0507,-0.0544,-0.0594,-0.0621,-0.0672,-0.0678,-0.0701,-0.0691,-0.0693,-0.0731,-0.0718,-0.0724,-0.073,-0.0706,-0.0761,-0.0739,-0.0704,-0.0651,-0.0729,-0.0743,-0.0752,-0.0619,-0.0617,-0.0615,-0.0614,0,0,-0.0529,-0.0603,-0.0616,-0.065,-0.0689,-0.0723,-0.0772,-0.0811,-0.0834,-0.0847,-0.0882,-0.09,-0.0867,-0.0865,-0.0836,-0.085,-0.0912,-0.0805,-0.0803,-0.0819,-0.0953,-0.0999,-0.1012,-0.0887,-0.0889,-0.089,-0.0947,0,-0.0613,-0.0726,-0.0738,-0.0834,-0.0888,-0.0874,-0.0918,-0.0939,-0.0942,-0.0969,-0.0951,-0.0971,-0.0926,-0.0923,-0.0936,-0.0907,-0.0936,-0.09,-0.088,-0.088,-0.0906,-0.1024,-0.1077,-0.1137,-0.0955,-0.0957,-0.0958,0,-0.0715,-0.0773,-0.0883,-0.094,-0.096,-0.1005,-0.1045,-0.108,-0.1095,-0.1092,-0.1098,-0.107,-0.1089,-0.1033,-0.1044,-0.102,-0.1004,-0.0985,-0.0986,-0.0995,-0.0943,-0.1027,-0.1159,-0.1136,-0.0971,-0.097,-0.0969,0,-0.077,-0.0871,-0.0958,-0.0984,-0.1047,-0.1079,-0.1101,-0.1122,-0.1145,-0.1163,-0.1172,-0.1177,-0.1174,-0.1159,-0.1114,-0.1082,-0.1124,-0.107,-0.1106,-0.1108,-0.1133,-0.1135,-0.1234,-0.1102,-0.1102,-0.1102,-0.1102,0,-0.0861,-0.0928,-0.0989,-0.1039,-0.1119,-0.1132,-0.1197,-0.121,-0.1227,-0.1261,-0.1232,-0.1253,-0.1203,-0.1206,-0.1163,-0.1177,-0.1167,-0.115,-0.1141,-0.1174,-0.1179,-0.1139,-0.1114,-0.1104,-0.1103,-0.1103,-0.1103,0,-0.0925,-0.0967,-0.1063,-0.1134,-0.1153,-0.1208,-0.125,-0.1286,-0.129,-0.133,-0.1336,-0.1326,-0.1332,-0.1293,-0.1273,-0.1251,-0.1254,-0.1251,-0.1299,-0.1296,-0.1312,-0.129,-0.1382,-0.1341,-0.1316,-0.1317,-0.1319,0,-0.0973,-0.1035,-0.1128,-0.1171,-0.1208,-0.1272,-0.1308,-0.1322,-0.135,-0.1375,-0.1399,-0.1414,-0.144,-0.1444,-0.1423,-0.1411,-0.1327,-0.1427,-0.1385,-0.1363,-0.1329,-0.1302,-0.1256,-0.146,-0.1462,-0.1464,-0.1466,0,-0.1056,-0.1088,-0.1152,-0.1248,-0.1301,-0.1359,-0.1406,-0.1435,-0.1447,-0.1475,-0.1518,-0.1545,-0.1569,-0.1606,-0.1591,-0.1554,-0.1436,-0.147,-0.1435,-0.1466,-0.1454,-0.1392,-0.1363,-0.1484,-0.1482,-0.1481,-0.148,-0.1479,-0.1099,-0.1157,-0.1237,-0.1319,-0.1382,-0.1444,-0.1484,-0.1522,-0.1572,-0.1612,-0.162,-0.1674,-0.172,-0.1731,-0.1696,-0.1664,-0.1589,-0.1605,-0.1586,-0.1562,-0.1525,-0.1551,-0.1662,-0.1661,-0.1661,-0.166,-0.166,0,-0.117,-0.1221,-0.1301,-0.1406,-0.1486,-0.1492,-0.1546,-0.1561,-0.162,-0.1675,-0.1719,-0.1836,-0.1886,-0.1872,-0.1889,-0.1807,-0.1718,-0.1709,-0.1669,-0.1612,-0.164,-0.1647,-0.1775,-0.1775,-0.1775,-0.1775,-0.1775,-0.1775,-0.1206,-0.1295,-0.1332,-0.1471,-0.1536,-0.1591,-0.1608,-0.1607,-0.163,-0.1695,-0.1793,-0.1829,-0.1788,-0.2021,-0.1964,-0.1879,-0.174,-0.1744,-0.1636,-0.1646,-0.1633,-0.1621,-0.1622,-0.1742,-0.1742,-0.1604,-0.1603,-0.1602]},{"header":{"parameterUnit":"m.s-1","parameterCategory":2,"la1":30.2991,"la2":30.254,"lo1":-89.0895,"lo2":-89.0444,"dy":0.0017,"dx":0.0017,"nx":28,"ny":28,"refTime":"2023-04-16T21:00:00:Z","depth":"0","parameterNumber":3,"parameterNumberName":"V-component_of_CURRENTS"},"data":[0,0,0,0,0,0,0,0,0,0,0,0,0,0,0,0,0,0,0,0,0,0,0,0,0,0,0,0,0,0,0,0,0,0,0,0,0,0,0,0,0,0,0,0,0,0,0,0,0,0,0,0,0,0,0,0,0,0,-0.2022,-0.2022,0,-0.1997,-0.1997,-0.1996,-0.1957,-0.1956,-0.1956,-0.1955,-0.1911,-0.191,-0.1909,0,0,0,0,0,0,0,0,0,0,0,0,0,-0.1975,-0.1976,-0.2022,-0.2022,-0.2022,-0.1997,-0.1997,-0.1996,-0.1957,-0.1956,-0.1956,-0.1955,-0.1911,-0.191,-0.1909,0,0,0,0,0,0,0,0,0,0,0,0,0,-0.1975,-0.1976,-0.2022,-0.2002,-0.2,-0.1998,-0.1997,-0.1996,-0.1957,-0.1956,-0.1955,-0.1955,-0.1911,-0.191,-0.1909,-0.1915,0,0,-0.1906,-0.1905,0,0,0,0,0,0,0,0,-0.1975,-0.1976,-0.2005,-0.2003,-0.2001,-0.1982,-0.1964,-0.1969,-0.1957,-0.197,-0.1955,-0.1955,-0.1935,-0.1932,-0.1925,-0.1913,-0.1911,-0.1905,-0.1905,-0.1904,-0.1904,0,0,0,0,0,0,0,-0.1975,-0.1977,-0.2009,-0.2005,-0.2002,-0.1973,-0.1973,-0.1964,-0.1954,-0.1969,-0.1967,-0.1969,-0.1934,-0.1926,-0.1924,-0.1911,-0.1905,-0.1904,-0.1904,-0.1903,-0.1893,-0.1894,0,0,0,0,0,0,-0.1988,-0.1977,-0.201,-0.2009,-0.1989,-0.1975,-0.1974,-0.1986,-0.1954,-0.195,-0.1969,-0.1967,-0.1928,-0.1925,-0.1922,-0.191,-0.1904,-0.1903,-0.1902,-0.1893,-0.1893,-0.1894,0,0,0,0,0,0,-0.1987,-0.1992,-0.2011,-0.1994,-0.1995,-0.1977,-0.1991,-0.1986,-0.1981,-0.1956,-0.195,-0.1969,-0.1928,-0.1923,-0.192,-0.1908,-0.1903,-0.1902,-0.1892,-0.1893,-0.1894,-0.1897,0,0,0,0,0,0,-0.1986,-0.1992,-0.2007,-0.1995,-0.1996,-0.2013,-0.1992,-0.1986,-0.1985,-0.1981,-0.1954,-0.1949,-0.1927,-0.1921,-0.1918,-0.1907,-0.1901,-0.1892,-0.1893,-0.1893,-0.1896,-0.1898,-0.1899,0,0,0,0,0,-0.1985,-0.2014,-0.2008,-0.2012,-0.2017,-0.2014,-0.2012,-0.1994,-0.1986,-0.1986,-0.197,-0.195,-0.1924,-0.1921,-0.1917,-0.1905,-0.1891,-0.1892,-0.1893,-0.1896,-0.1897,-0.1899,0,0,0,0,0,0,-0.2009,-0.2012,-0.2005,-0.2036,-0.2026,-0.2009,-0.2016,-0.2001,-0.1989,-0.1988,-0.1959,-0.1954,-0.1941,-0.1934,-0.1931,-0.1907,-0.1903,-0.1903,-0.1906,-0.1907,-0.1909,-0.1904,-0.19,0,0,0,0,0,-0.2021,-0.2039,-0.203,-0.2054,-0.2054,-0.2035,-0.2033,-0.2019,-0.2008,-0.2001,-0.1982,-0.1964,-0.1943,-0.1935,-0.1919,-0.1914,-0.1902,-0.1904,-0.1905,-0.1906,-0.1901,-0.1887,-0.1886,-0.1897,-0.1897,-0.1897,0,0,-0.2037,-0.2043,-0.2052,-0.2059,-0.2053,-0.2044,-0.2032,-0.2035,-0.202,-0.2,-0.1985,-0.197,-0.1944,-0.1929,-0.1923,-0.192,-0.1897,-0.1907,-0.1908,-0.1902,-0.1888,-0.1886,-0.1885,-0.1898,-0.1898,-0.1897,0,0,-0.2069,-0.2083,-0.2099,-0.209,-0.2085,-0.2067,-0.207,-0.2054,-0.2041,-0.2029,-0.2005,-0.199,-0.1966,-0.194,-0.1923,-0.1928,-0.1905,-0.1923,-0.1922,-0.1909,-0.1907,-0.1906,-0.1889,-0.1886,-0.1923,-0.1923,-0.1923,0,-0.2086,-0.2101,-0.2102,-0.2105,-0.2093,-0.2077,-0.207,-0.2058,-0.204,-0.2029,-0.2027,-0.1983,-0.1966,-0.1932,-0.1928,-0.1928,-0.1917,-0.1915,-0.1909,-0.1907,-0.1906,-0.1888,-0.1885,-0.1924,-0.1924,-0.1924,-0.1924,0,-0.2116,-0.212,-0.2131,-0.212,-0.2108,-0.2107,-0.2082,-0.2074,-0.2056,-0.2036,-0.2011,-0.199,-0.1958,-0.1952,-0.1937,-0.1914,-0.1909,-0.1911,-0.1902,-0.1904,-0.1887,-0.1883,-0.1924,-0.1924,-0.1924,-0.1924,0,0,-0.2164,-0.2151,-0.2151,-0.2134,-0.2111,-0.2102,-0.2085,-0.2057,-0.2041,-0.2025,-0.1998,-0.1968,-0.1956,-0.1938,-0.1921,-0.1911,-0.1891,-0.1906,-0.1905,-0.1883,-0.1856,-0.1827,-0.1821,-0.189,-0.189,-0.1889,-0.1848,0,-0.2177,-0.2178,-0.2162,-0.2141,-0.213,-0.21,-0.2078,-0.2053,-0.2031,-0.2008,-0.1984,-0.1953,-0.195,-0.193,-0.192,-0.1894,-0.1882,-0.1901,-0.1862,-0.1861,-0.183,-0.1816,-0.1741,-0.1695,-0.1844,-0.1843,-0.1843,0,-0.2201,-0.2193,-0.2178,-0.2133,-0.2126,-0.2106,-0.2062,-0.2042,-0.2008,-0.1992,-0.1965,-0.1943,-0.191,-0.1915,-0.1874,-0.1886,-0.187,-0.1859,-0.1857,-0.1825,-0.1825,-0.1717,-0.1682,-0.1521,-0.1837,-0.1838,-0.1838,0,-0.2219,-0.2197,-0.218,-0.2167,-0.2123,-0.2103,-0.2075,-0.2039,-0.2018,-0.1979,-0.1959,-0.1924,-0.1897,-0.1877,-0.1847,-0.1857,-0.1809,-0.182,-0.178,-0.1778,-0.1703,-0.1695,-0.15,-0.1796,-0.1796,-0.1796,-0.1796,0,-0.2232,-0.2214,-0.2187,-0.2176,-0.2145,-0.2111,-0.2076,-0.2049,-0.2011,-0.1985,-0.1951,-0.1927,-0.1888,-0.1855,-0.1838,-0.1789,-0.1798,-0.177,-0.1762,-0.1703,-0.1695,-0.1544,-0.1483,-0.1795,-0.1795,-0.1795,-0.1796,0,-0.2246,-0.2231,-0.2207,-0.2167,-0.2153,-0.213,-0.2075,-0.2053,-0.2017,-0.1982,-0.1964,-0.1919,-0.1863,-0.1823,-0.178,-0.1768,-0.1619,-0.1717,-0.1647,-0.1631,-0.1448,-0.1392,-0.113,-0.1078,-0.166,-0.1659,-0.1658,0,-0.2251,-0.2247,-0.221,-0.2191,-0.2169,-0.2133,-0.2106,-0.2061,-0.2038,-0.1982,-0.1967,-0.19,-0.1849,-0.1766,-0.1713,-0.1651,-0.1541,-0.1563,-0.1571,-0.1409,-0.1341,-0.1224,-0.1193,-0.1471,-0.1469,-0.1467,-0.1465,0,-0.2254,-0.2245,-0.2219,-0.2198,-0.2168,-0.2134,-0.2095,-0.2077,-0.2026,-0.1992,-0.1948,-0.1902,-0.1799,-0.1703,-0.1612,-0.1559,-0.1386,-0.1523,-0.1363,-0.1176,-0.1025,-0.0983,-0.1529,-0.1449,-0.145,-0.1451,-0.1452,-0.1453,-0.2247,-0.2229,-0.2206,-0.2179,-0.216,-0.2132,-0.2077,-0.2054,-0.2011,-0.1939,-0.194,-0.1842,-0.17,-0.1552,-0.1475,-0.1216,-0.1249,-0.1147,-0.1094,-0.099,-0.0917,-0.1427,-0.1338,-0.1339,-0.134,-0.134,-0.1341,0,-0.2222,-0.2202,-0.2186,-0.2145,-0.2126,-0.2113,-0.2059,-0.1992,-0.1933,-0.1894,-0.1846,-0.1637,-0.1475,-0.128,-0.0981,-0.0811,-0.0732,-0.0705,-0.0509,-0.0512,-0.0962,-0.0933,-0.0741,-0.0741,-0.0741,-0.0741,-0.0741,-0.0742,-0.2196,-0.2168,-0.2158,-0.2116,-0.2087,-0.1997,-0.1944,-0.1875,-0.1811,-0.1633,-0.1493,-0.1376,-0.0971,-0.0606,-0.0298,-0.0291,-0.0125,-0.0083,-0.0065,-0.0359,-0.0395,-0.043,-0.0383,-0.008,-0.0079,0.0421,0.0426,0.0429]}],[{"header":{"parameterUnit":"m.s-1","parameterCategory":2,"la1":30.2991,"la2":30.254,"lo1":-89.0895,"lo2":-89.0444,"dy":0.0017,"dx":0.0017,"nx":28,"ny":28,"refTime":"2023-04-16T21:00:00:Z","depth":"2","parameterNumber":2,"parameterNumberName":"U-component_of_CURRENTS"},"data":[0,0,0,0,0,0,0,0,0,0,0,0,0,0,0,0,0,0,0,0,0,0,0,0,0,0,0,0,0,0,0,0,0,0,0,0,0,0,0,0,0,0,0,0,0,0,0,0,0,0,0,0,0,0,0,0,0,0,-0.0719,-0.0718,0,-0.0624,-0.0623,-0.0621,-0.0527,-0.0526,-0.0524,-0.0523,-0.0435,-0.0434,-0.0433,0,0,0,0,0,0,0,0,0,0,0,0,0,-0.0845,-0.0843,-0.0719,-0.0718,-0.0716,-0.0624,-0.0622,-0.0621,-0.0527,-0.0526,-0.0524,-0.0523,-0.0436,-0.0434,-0.0433,0,0,0,0,0,0,0,0,0,0,0,0,0,-0.0773,-0.0842,-0.0719,-0.0659,-0.0653,-0.0624,-0.0622,-0.0621,-0.0527,-0.0526,-0.0524,-0.0522,-0.0436,-0.0434,-0.0433,-0.0457,0,0,-0.0427,-0.0426,0,0,0,0,0,0,0,0,-0.0777,-0.0769,-0.0669,-0.0663,-0.0656,-0.0586,-0.0635,-0.0567,-0.0528,-0.0574,-0.0523,-0.0521,-0.0488,-0.0482,-0.0467,-0.0453,-0.0449,-0.0427,-0.0426,-0.0425,-0.0424,0,0,0,0,0,0,0,-0.0782,-0.0772,-0.068,-0.0668,-0.066,-0.0646,-0.0633,-0.0621,-0.0542,-0.057,-0.0563,-0.0554,-0.0484,-0.0469,-0.0464,-0.0448,-0.0427,-0.0425,-0.0424,-0.0423,-0.042,-0.0421,0,0,0,0,0,0,-0.0796,-0.0777,-0.0683,-0.0677,-0.0714,-0.0645,-0.0631,-0.061,-0.0542,-0.053,-0.0556,-0.055,-0.0473,-0.0466,-0.0461,-0.0484,-0.0425,-0.0423,-0.0422,-0.0419,-0.042,-0.0421,0,0,0,0,0,0,-0.0799,-0.0788,-0.0687,-0.0727,-0.0713,-0.0644,-0.0621,-0.0609,-0.0586,-0.0531,-0.0518,-0.0546,-0.0471,-0.0463,-0.0433,-0.048,-0.0422,-0.0421,-0.0417,-0.0419,-0.042,-0.0533,0,0,0,0,0,0,-0.0803,-0.0789,-0.0789,-0.0727,-0.0711,-0.0684,-0.0623,-0.0608,-0.0584,-0.0576,-0.0519,-0.0509,-0.0469,-0.0436,-0.0431,-0.0477,-0.0419,-0.0416,-0.0418,-0.042,-0.0528,-0.0538,-0.0547,0,0,0,0,0,-0.0807,-0.0817,-0.0789,-0.0779,-0.0708,-0.0686,-0.0677,-0.0622,-0.0586,-0.0592,-0.0532,-0.051,-0.0446,-0.0435,-0.0429,-0.0475,-0.0415,-0.0418,-0.042,-0.0524,-0.0536,-0.0547,0,0,0,0,0,0,-0.088,-0.0807,-0.0775,-0.0763,-0.0732,-0.067,-0.0672,-0.0632,-0.059,-0.0574,-0.0514,-0.0501,-0.0489,-0.0466,-0.0456,-0.0478,-0.0432,-0.0433,-0.0513,-0.0524,-0.0534,-0.0578,-0.0418,0,0,0,0,0,-0.0895,-0.0872,-0.0815,-0.0807,-0.0796,-0.0735,-0.072,-0.068,-0.0631,-0.061,-0.0567,-0.0525,-0.0498,-0.0495,-0.0459,-0.0481,-0.0488,-0.0508,-0.0518,-0.0526,-0.0557,-0.0602,-0.062,-0.0428,-0.0428,-0.0428,0,0,-0.0918,-0.0878,-0.0864,-0.082,-0.0788,-0.0785,-0.0722,-0.0702,-0.0703,-0.0611,-0.06,-0.0547,-0.0503,-0.0508,-0.0506,-0.0497,-0.0582,-0.0529,-0.0537,-0.0564,-0.0607,-0.0626,-0.0643,-0.043,-0.043,-0.0429,0,0,-0.0957,-0.0922,-0.0916,-0.0899,-0.0857,-0.0827,-0.0826,-0.0768,-0.0751,-0.0729,-0.0662,-0.0648,-0.0597,-0.0595,-0.0582,-0.0633,-0.0614,-0.061,-0.0718,-0.0761,-0.0778,-0.0793,-0.0826,-0.0843,-0.0636,-0.0636,-0.0636,0,-0.099,-0.0966,-0.0919,-0.0919,-0.0909,-0.0851,-0.0857,-0.0847,-0.0786,-0.0792,-0.0739,-0.0696,-0.0655,-0.0694,-0.0696,-0.0663,-0.0666,-0.0679,-0.0778,-0.0793,-0.0807,-0.0836,-0.0853,-0.0642,-0.0641,-0.0641,-0.064,0,-0.1017,-0.1007,-0.1013,-0.0983,-0.0978,-0.0975,-0.095,-0.0952,-0.0915,-0.09,-0.091,-0.0855,-0.0831,-0.0826,-0.077,-0.0852,-0.0813,-0.077,-0.0758,-0.0833,-0.0858,-0.0875,-0.065,-0.0648,-0.0646,-0.0645,0,0,-0.1048,-0.1031,-0.103,-0.103,-0.1006,-0.1002,-0.1033,-0.1046,-0.1072,-0.1047,-0.1089,-0.1059,-0.1022,-0.1006,-0.0955,-0.1009,-0.1094,-0.0934,-0.0934,-0.0983,-0.118,-0.1079,-0.1086,-0.1058,-0.1061,-0.1064,-0.1159,0,-0.1077,-0.1087,-0.1073,-0.1096,-0.1099,-0.1084,-0.1115,-0.1127,-0.1129,-0.1163,-0.1169,-0.1164,-0.1095,-0.107,-0.1119,-0.1073,-0.1142,-0.1072,-0.1085,-0.1087,-0.1002,-0.1104,-0.0948,-0.1012,-0.1174,-0.1177,-0.1179,0,-0.1092,-0.1097,-0.1118,-0.1137,-0.1139,-0.1156,-0.1194,-0.1215,-0.1273,-0.1271,-0.1306,-0.1278,-0.1331,-0.1256,-0.1305,-0.1251,-0.1236,-0.123,-0.1233,-0.1117,-0.1017,-0.0961,-0.1035,-0.1206,-0.1204,-0.1202,-0.12,0,-0.1103,-0.1127,-0.1143,-0.1146,-0.1165,-0.1189,-0.1206,-0.1251,-0.1276,-0.1344,-0.1361,-0.1411,-0.1409,-0.143,-0.138,-0.134,-0.1445,-0.1382,-0.1307,-0.1299,-0.1162,-0.1135,-0.1472,-0.1472,-0.1472,-0.1472,-0.1471,0,-0.1116,-0.1131,-0.1153,-0.1158,-0.1193,-0.1205,-0.1253,-0.1279,-0.1335,-0.1385,-0.1405,-0.1445,-0.1449,-0.1483,-0.1452,-0.1424,-0.1498,-0.1363,-0.1333,-0.1192,-0.1168,-0.1321,-0.1303,-0.1475,-0.1474,-0.1474,-0.1473,0,-0.1104,-0.1118,-0.1138,-0.1173,-0.1189,-0.1208,-0.1254,-0.1287,-0.1339,-0.141,-0.1427,-0.1481,-0.1499,-0.1513,-0.1544,-0.1489,-0.1491,-0.1471,-0.1298,-0.1245,-0.1303,-0.1289,-0.1409,-0.1407,-0.1405,-0.1403,-0.1402,0,-0.1095,-0.11,-0.1134,-0.1142,-0.1156,-0.1193,-0.1211,-0.1269,-0.1307,-0.1425,-0.1455,-0.1511,-0.1535,-0.1547,-0.1458,-0.1425,-0.1468,-0.1263,-0.1165,-0.1347,-0.1306,-0.1295,-0.1283,-0.1034,-0.1029,-0.1026,-0.1023,0,-0.1066,-0.1073,-0.108,-0.1092,-0.1112,-0.1146,-0.119,-0.1232,-0.1316,-0.1409,-0.1519,-0.1567,-0.1527,-0.1399,-0.1311,-0.1259,-0.1246,-0.1186,-0.146,-0.1053,-0.0994,-0.0952,-0.0954,-0.0992,-0.0995,-0.0997,-0.0999,-0.1,-0.1025,-0.1014,-0.1006,-0.1013,-0.1044,-0.1076,-0.1069,-0.1165,-0.1253,-0.1372,-0.1517,-0.1522,-0.1339,-0.1121,-0.1055,-0.098,-0.1055,-0.0966,-0.0977,-0.0992,-0.0911,-0.085,-0.0805,-0.0807,-0.0809,-0.0811,-0.0812,0,-0.0944,-0.0926,-0.0926,-0.0911,-0.0909,-0.0957,-0.1016,-0.1009,-0.1097,-0.1291,-0.1421,-0.1191,-0.1042,-0.09,-0.0735,-0.0675,-0.0673,-0.063,-0.0623,-0.0651,-0.0678,-0.0582,-0.039,-0.0389,-0.0388,-0.0388,0,0,-0.0887,-0.0839,-0.0829,-0.0766,-0.0766,-0.0722,-0.0737,-0.0788,-0.088,-0.1057,-0.1091,-0.1125,-0.0933,-0.0683,-0.0575,-0.0506,-0.0607,-0.0471,-0.0801,-0.083,-0.0858,-0.0843,-0.0723,0,0,0,0,0]},{"header":{"parameterUnit":"m.s-1","parameterCategory":2,"la1":30.2991,"la2":30.254,"lo1":-89.0895,"lo2":-89.0444,"dy":0.0017,"dx":0.0017,"nx":28,"ny":28,"refTime":"2023-04-16T21:00:00:Z","depth":"2","parameterNumber":3,"parameterNumberName":"V-component_of_CURRENTS"},"data":[0,0,0,0,0,0,0,0,0,0,0,0,0,0,0,0,0,0,0,0,0,0,0,0,0,0,0,0,0,0,0,0,0,0,0,0,0,0,0,0,0,0,0,0,0,0,0,0,0,0,0,0,0,0,0,0,0,0,0.0966,0.0966,0,0.0931,0.093,0.093,0.0844,0.0843,0.0842,0.0841,0.0687,0.0684,0.0681,0,0,0,0,0,0,0,0,0,0,0,0,0,0.0917,0.0918,0.0966,0.0966,0.0966,0.0932,0.093,0.0929,0.0845,0.0843,0.0842,0.084,0.0688,0.0684,0.0681,0,0,0,0,0,0,0,0,0,0,0,0,0,0.091,0.0918,0.0966,0.0925,0.0921,0.0932,0.093,0.0929,0.0845,0.0843,0.0841,0.084,0.0689,0.0685,0.068,0.0688,0,0,0.0666,0.0664,0,0,0,0,0,0,0,0,0.091,0.0911,0.0931,0.0928,0.0924,0.0896,0.0857,0.0845,0.0845,0.0867,0.0841,0.0839,0.0751,0.0742,0.0731,0.0681,0.0674,0.0666,0.0663,0.0661,0.066,0,0,0,0,0,0,0,0.0911,0.0912,0.0946,0.0931,0.0927,0.0894,0.0891,0.0854,0.0812,0.0865,0.086,0.0868,0.0747,0.0736,0.0727,0.0672,0.0666,0.0662,0.0659,0.0658,0.0563,0.0563,0,0,0,0,0,0,0.0933,0.0913,0.0947,0.0945,0.092,0.0897,0.0893,0.0901,0.0815,0.0803,0.0869,0.0864,0.0745,0.0732,0.0721,0.0677,0.0661,0.0657,0.0655,0.0563,0.0563,0.0563,0,0,0,0,0,0,0.0932,0.0937,0.0948,0.0933,0.0933,0.0901,0.091,0.0902,0.0885,0.0821,0.0805,0.0861,0.0743,0.0727,0.0682,0.0672,0.0655,0.0651,0.0562,0.0563,0.0563,0.062,0,0,0,0,0,0,0.0931,0.0937,0.0941,0.0935,0.0935,0.096,0.0913,0.0903,0.0896,0.0888,0.0809,0.0793,0.074,0.069,0.0678,0.0666,0.0647,0.0562,0.0562,0.0563,0.0618,0.0622,0.0626,0,0,0,0,0,0.0929,0.095,0.0941,0.0945,0.0945,0.0962,0.0959,0.0924,0.0897,0.0899,0.0839,0.0795,0.0683,0.0687,0.0673,0.0659,0.0562,0.0562,0.0563,0.0616,0.0621,0.0626,0,0,0,0,0,0,0.0924,0.0944,0.0934,0.0956,0.0962,0.095,0.0948,0.0933,0.089,0.0871,0.0802,0.0783,0.0741,0.0699,0.0705,0.0634,0.0614,0.0611,0.0659,0.0663,0.0667,0.0661,0.0644,0,0,0,0,0,0.0932,0.0946,0.0962,0.0974,0.0982,0.0966,0.0965,0.095,0.0921,0.09,0.085,0.0788,0.0736,0.07,0.0656,0.062,0.0604,0.0601,0.0605,0.0609,0.0595,0.0577,0.0579,0.0564,0.0564,0.0564,0,0,0.0928,0.0943,0.0947,0.0973,0.0967,0.098,0.0958,0.0966,0.0952,0.089,0.0846,0.0808,0.0734,0.069,0.0666,0.0648,0.0611,0.0609,0.0613,0.0597,0.0578,0.0579,0.0581,0.0565,0.0565,0.0565,0,0,0.0932,0.0948,0.0959,0.0979,0.0994,0.0989,0.0998,0.0996,0.0965,0.0944,0.0884,0.0847,0.0775,0.0718,0.0678,0.0682,0.0643,0.0663,0.0662,0.0647,0.0648,0.0648,0.0663,0.0664,0.0653,0.0653,0.0653,0,0.0918,0.0941,0.0964,0.0988,0.0992,0.0998,0.1004,0.0992,0.0968,0.0932,0.0934,0.083,0.0786,0.0706,0.0703,0.0689,0.068,0.0651,0.0653,0.0652,0.0652,0.0666,0.0667,0.0656,0.0655,0.0655,0.0655,0,0.0939,0.0953,0.0966,0.0989,0.1003,0.1014,0.1017,0.1004,0.098,0.0956,0.0897,0.0856,0.0779,0.0773,0.0734,0.0693,0.0692,0.0673,0.0643,0.0657,0.0672,0.0671,0.066,0.0659,0.0658,0.0657,0,0,0.0888,0.096,0.0954,0.0961,0.1001,0.1007,0.0994,0.0966,0.092,0.0922,0.086,0.0813,0.0789,0.0743,0.0703,0.0695,0.071,0.0679,0.0677,0.0699,0.0693,0.0744,0.0748,0.0687,0.0686,0.0686,0.0718,0,0.0873,0.0901,0.0946,0.0954,0.0963,0.098,0.0959,0.0939,0.0904,0.0854,0.0824,0.0761,0.0774,0.073,0.073,0.0701,0.0705,0.0704,0.067,0.0669,0.0717,0.0748,0.0722,0.0751,0.0717,0.0717,0.0717,0,0.0858,0.0877,0.0878,0.091,0.0913,0.0915,0.0861,0.0857,0.0803,0.0773,0.0733,0.0702,0.0674,0.0692,0.0686,0.0681,0.0687,0.0694,0.0695,0.0713,0.0718,0.0723,0.0751,0.0716,0.0716,0.0716,0.0716,0,0.0773,0.0823,0.0808,0.0825,0.0864,0.0839,0.0848,0.0805,0.0776,0.0711,0.067,0.0647,0.0609,0.0637,0.0657,0.0659,0.0671,0.0672,0.0733,0.0737,0.0692,0.0694,0.0672,0.0672,0.0672,0.0672,0.0671,0,0.0733,0.0726,0.0761,0.0757,0.0723,0.0777,0.0723,0.0711,0.0684,0.0646,0.0618,0.0576,0.0588,0.0593,0.0643,0.0699,0.0661,0.074,0.0745,0.0717,0.072,0.0658,0.0656,0.0673,0.0673,0.0672,0.0672,0,0.0654,0.0678,0.0668,0.0685,0.0684,0.0657,0.0679,0.0647,0.0619,0.0568,0.0547,0.0509,0.0522,0.0559,0.0591,0.0661,0.072,0.0741,0.0729,0.0733,0.0806,0.0807,0.0828,0.083,0.0832,0.0833,0.0834,0,0.0626,0.0606,0.0597,0.0578,0.0583,0.057,0.0563,0.059,0.0587,0.0538,0.0524,0.0483,0.0539,0.0624,0.0666,0.0773,0.0737,0.0803,0.081,0.0818,0.082,0.0818,0.0816,0.0783,0.0783,0.0784,0.0784,0,0.0576,0.0552,0.0542,0.0493,0.0476,0.0485,0.05,0.0505,0.054,0.0537,0.0568,0.0618,0.0638,0.0733,0.0808,0.0855,0.0796,0.0821,0.08,0.0758,0.0781,0.0781,0.078,0.0789,0.0789,0.0788,0.0788,0.0788,0.0523,0.0502,0.0471,0.0427,0.041,0.0426,0.0427,0.0488,0.0542,0.0576,0.0662,0.0728,0.0645,0.0778,0.082,0.0837,0.0875,0.0878,0.0874,0.0869,0.0869,0.0894,0.0925,0.0926,0.0926,0.0926,0.0926,0,0.0473,0.0463,0.0424,0.0392,0.037,0.0367,0.0402,0.0415,0.0501,0.0608,0.0727,0.0676,0.0812,0.0746,0.083,0.0903,0.0857,0.0862,0.0791,0.0788,0.0786,0.0777,0.0811,0.0811,0.081,0.0809,0,0,0.0446,0.0415,0.041,0.0371,0.0343,0.0317,0.0332,0.0365,0.0433,0.0546,0.0626,0.0739,0.0743,0.0694,0.0734,0.0819,0.0781,0.0796,0.0893,0.0806,0.0801,0.0811,0.08,0,0,0,0,0]}],[{"header":{"parameterUnit":"m.s-1","parameterCategory":2,"la1":30.2991,"la2":30.254,"lo1":-89.0895,"lo2":-89.0444,"dy":0.0017,"dx":0.0017,"nx":28,"ny":28,"refTime":"2023-04-16T21:00:00:Z","depth":"4","parameterNumber":2,"parameterNumberName":"U-component_of_CURRENTS"},"data":[0,0,0,0,0,0,0,0,0,0,0,0,0,0,0,0,0,0,0,0,0,0,0,0,0,0,0,0,0,0,0,0,0,0,0,0,0,0,0,0,0,0,0,0,0,0,0,0,0,0,0,0,0,0,0,0,0,0,-0.0919,-0.092,0,-0.0989,-0.0989,-0.099,-0.1042,-0.1042,-0.1043,-0.1043,-0.1201,-0.1205,-0.1209,0,0,0,0,0,0,0,0,0,0,0,0,0,-0.0866,-0.0867,-0.0919,-0.092,-0.0921,-0.0988,-0.0989,-0.099,-0.1042,-0.1042,-0.1043,-0.1043,-0.12,-0.1204,-0.1209,0,0,0,0,0,0,0,0,0,0,0,0,0,-0.0909,-0.0867,-0.0919,-0.0954,-0.0958,-0.0988,-0.0989,-0.0991,-0.1042,-0.1042,-0.1043,-0.1043,-0.1198,-0.1204,-0.121,-0.1234,0,0,-0.1227,-0.123,0,0,0,0,0,0,0,0,-0.0906,-0.091,-0.0948,-0.0951,-0.0956,-0.1006,-0.1029,-0.1076,-0.1042,-0.1011,-0.1043,-0.1044,-0.1143,-0.1154,-0.1165,-0.1241,-0.1248,-0.1228,-0.1231,-0.1234,-0.1236,0,0,0,0,0,0,0,-0.0903,-0.0908,-0.0948,-0.0949,-0.0953,-0.0978,-0.0984,-0.1038,-0.1075,-0.1013,-0.1017,-0.1023,-0.1146,-0.116,-0.117,-0.1251,-0.1228,-0.1233,-0.1236,-0.1239,-0.1651,-0.1658,0,0,0,0,0,0,-0.089,-0.0905,-0.0945,-0.0949,-0.0931,-0.0978,-0.0986,-0.099,-0.1073,-0.1085,-0.1023,-0.1025,-0.1149,-0.1163,-0.1176,-0.1403,-0.1234,-0.1239,-0.1243,-0.1644,-0.1653,-0.1661,0,0,0,0,0,0,-0.0889,-0.0893,-0.0942,-0.0928,-0.0936,-0.0978,-0.0983,-0.0991,-0.1033,-0.1079,-0.1093,-0.1059,-0.115,-0.1167,-0.1219,-0.1402,-0.1242,-0.1247,-0.1635,-0.1647,-0.1657,-0.1733,0,0,0,0,0,0,-0.0887,-0.0892,-0.0897,-0.0927,-0.0936,-0.0969,-0.0983,-0.0992,-0.1033,-0.1038,-0.1114,-0.1127,-0.1152,-0.121,-0.1225,-0.1407,-0.1252,-0.1626,-0.164,-0.1653,-0.1721,-0.1746,-0.1766,0,0,0,0,0,-0.0885,-0.089,-0.0897,-0.0902,-0.094,-0.097,-0.0977,-0.1009,-0.1035,-0.105,-0.1088,-0.1127,-0.1317,-0.1214,-0.1232,-0.1421,-0.1619,-0.1636,-0.1652,-0.1711,-0.1741,-0.1766,0,0,0,0,0,0,-0.0872,-0.0896,-0.0905,-0.0917,-0.0944,-0.0978,-0.0997,-0.1026,-0.1069,-0.1091,-0.1129,-0.1144,-0.1282,-0.1333,-0.1221,-0.1598,-0.1515,-0.1536,-0.1555,-0.1583,-0.1605,-0.1628,-0.1256,0,0,0,0,0,-0.0868,-0.0886,-0.0906,-0.0924,-0.0932,-0.0971,-0.0992,-0.1025,-0.1063,-0.1085,-0.1144,-0.1253,-0.1367,-0.1442,-0.152,-0.1672,-0.1616,-0.1845,-0.1867,-0.1885,-0.1926,-0.1914,-0.1935,-0.1716,-0.1716,-0.1716,0,0,-0.0874,-0.0888,-0.0901,-0.0924,-0.0948,-0.0973,-0.0987,-0.1035,-0.1083,-0.1097,-0.1192,-0.129,-0.141,-0.1583,-0.1667,-0.1649,-0.1915,-0.1907,-0.192,-0.1952,-0.1933,-0.1953,-0.197,-0.1728,-0.1726,-0.1724,0,0,-0.0893,-0.09,-0.0919,-0.0938,-0.0978,-0.1,-0.1018,-0.1078,-0.1128,-0.1221,-0.1283,-0.147,-0.1609,-0.1765,-0.1856,-0.2061,-0.1997,-0.2147,-0.2314,-0.2301,-0.2315,-0.2328,-0.2224,-0.2227,-0.2201,-0.2201,-0.2202,0,-0.0902,-0.0913,-0.0931,-0.0951,-0.097,-0.1012,-0.104,-0.1094,-0.1178,-0.124,-0.127,-0.1602,-0.1721,-0.1972,-0.2105,-0.2118,-0.2036,-0.2175,-0.2317,-0.2329,-0.234,-0.2231,-0.2233,-0.2207,-0.2206,-0.2206,-0.2205,0,-0.0926,-0.0939,-0.0952,-0.0986,-0.1015,-0.1046,-0.1105,-0.1174,-0.1264,-0.1346,-0.1591,-0.1773,-0.2017,-0.2132,-0.2198,-0.2434,-0.2317,-0.2288,-0.2209,-0.2364,-0.2242,-0.2242,-0.2215,-0.2213,-0.2212,-0.221,0,0,-0.0917,-0.0961,-0.0955,-0.0963,-0.1033,-0.1044,-0.1147,-0.1238,-0.1332,-0.1519,-0.1691,-0.2035,-0.2208,-0.2336,-0.2497,-0.2566,-0.2612,-0.2509,-0.2505,-0.234,-0.2484,-0.2184,-0.2152,-0.2558,-0.256,-0.2562,-0.2339,0,-0.0922,-0.0934,-0.0975,-0.1,-0.1006,-0.1083,-0.1188,-0.1299,-0.1422,-0.1595,-0.1871,-0.211,-0.2261,-0.2467,-0.2572,-0.259,-0.2628,-0.2671,-0.2423,-0.2416,-0.2074,-0.2151,-0.2571,-0.2338,-0.2338,-0.2338,-0.2338,0,-0.0913,-0.0916,-0.0943,-0.1005,-0.1023,-0.1098,-0.1235,-0.136,-0.1602,-0.1736,-0.2035,-0.2188,-0.2497,-0.2561,-0.2664,-0.2659,-0.2636,-0.2597,-0.2584,-0.2289,-0.2118,-0.218,-0.2336,-0.2336,-0.2337,-0.2337,-0.2337,0,-0.0849,-0.0877,-0.089,-0.0906,-0.1014,-0.1103,-0.1233,-0.1444,-0.1569,-0.1892,-0.1981,-0.2302,-0.246,-0.2528,-0.25,-0.2606,-0.2394,-0.2515,-0.2194,-0.2166,-0.2459,-0.2449,-0.2539,-0.2539,-0.254,-0.2541,-0.2541,0,-0.0816,-0.0813,-0.0879,-0.0888,-0.0971,-0.1122,-0.1323,-0.1463,-0.175,-0.1803,-0.2138,-0.2156,-0.2443,-0.2339,-0.2407,-0.2204,-0.2312,-0.222,-0.2109,-0.2494,-0.2492,-0.2452,-0.2445,-0.2532,-0.2534,-0.2536,-0.2537,0,-0.0759,-0.0792,-0.0801,-0.0905,-0.0955,-0.1066,-0.1362,-0.1451,-0.1754,-0.1825,-0.1929,-0.2045,-0.1921,-0.1981,-0.1954,-0.1981,-0.1881,-0.1755,-0.202,-0.1924,-0.1723,-0.1725,-0.1553,-0.1541,-0.1531,-0.1523,-0.1515,0,-0.0736,-0.0738,-0.0785,-0.0786,-0.0856,-0.1062,-0.115,-0.1474,-0.1504,-0.1615,-0.1518,-0.1501,-0.152,-0.1251,-0.1373,-0.138,-0.1401,-0.1365,-0.1796,-0.1723,-0.1633,-0.165,-0.1665,-0.1499,-0.1497,-0.1494,-0.1491,0,-0.069,-0.0713,-0.0707,-0.0714,-0.0763,-0.0834,-0.0964,-0.1018,-0.1222,-0.1358,-0.1173,-0.1197,-0.0969,-0.1038,-0.0941,-0.0977,-0.1457,-0.1265,-0.1298,-0.1703,-0.1655,-0.158,-0.1606,-0.1456,-0.1461,-0.1464,-0.1466,0,-0.0652,-0.0636,-0.0628,-0.0636,-0.0623,-0.0602,-0.0753,-0.0728,-0.0867,-0.0947,-0.0762,-0.0766,-0.0781,-0.079,-0.0671,-0.0698,-0.0898,-0.1063,-0.1112,-0.1152,-0.1142,-0.1031,-0.0537,0,0,0,0,0,-0.0601,-0.0573,-0.0541,-0.0531,-0.048,-0.0504,-0.0532,-0.0662,-0.0744,-0.055,-0.0747,-0.0537,-0.0536,-0.0541,-0.0531,-0.0579,-0.0907,-0.057,-0.1125,-0.126,-0.1301,-0.1337,0,0,0,0,0,0,-0.0567,-0.0537,-0.052,-0.0415,-0.0377,-0.0348,-0.0381,-0.0434,-0.0411,-0.047,-0.0461,-0.0507,-0.0501,-0.0508,-0.0508,-0.0517,-0.087,-0.0586,-0.0586,-0.1237,-0.1274,-0.1307,-0.1358,0,0,0,0,0]},{"header":{"parameterUnit":"m.s-1","parameterCategory":2,"la1":30.2991,"la2":30.254,"lo1":-89.0895,"lo2":-89.0444,"dy":0.0017,"dx":0.0017,"nx":28,"ny":28,"refTime":"2023-04-16T21:00:00:Z","depth":"4","parameterNumber":3,"parameterNumberName":"V-component_of_CURRENTS"},"data":[0,0,0,0,0,0,0,0,0,0,0,0,0,0,0,0,0,0,0,0,0,0,0,0,0,0,0,0,0,0,0,0,0,0,0,0,0,0,0,0,0,0,0,0,0,0,0,0,0,0,0,0,0,0,0,0,0,0,-0.0037,-0.0038,0,-0.0082,-0.0082,-0.0083,-0.0033,-0.0031,-0.0029,-0.0027,-0.0047,-0.0049,-0.0052,0,0,0,0,0,0,0,0,0,0,0,0,0,0.0043,0.0041,-0.0037,-0.0038,-0.0038,-0.0082,-0.0082,-0.0083,-0.0033,-0.003,-0.0028,-0.0026,-0.0046,-0.0049,-0.0052,0,0,0,0,0,0,0,0,0,0,0,0,0,0.0004,0.0041,-0.0037,-0.0018,-0.0016,-0.0082,-0.0082,-0.0083,-0.0033,-0.003,-0.0027,-0.0025,-0.0045,-0.0049,-0.0052,-0.0133,0,0,-0.0063,-0.0065,0,0,0,0,0,0,0,0,0.0006,0.0001,-0.002,-0.0019,-0.0018,-0.0048,-0.0062,-0.0099,-0.0034,-0.0028,-0.0027,-0.0023,-0.0047,-0.005,-0.0066,-0.0134,-0.0135,-0.0063,-0.0066,-0.0067,-0.0068,0,0,0,0,0,0,0,0.0009,0.0002,-0.0055,-0.0021,-0.002,-0.0024,-0.0026,-0.0069,-0.0053,-0.0028,-0.0024,-0.0029,-0.0046,-0.0063,-0.0066,-0.0135,-0.0063,-0.0066,-0.0069,-0.007,-0.0187,-0.0188,0,0,0,0,0,0,0.0014,0.0005,-0.0054,-0.0057,0.0002,-0.0027,-0.0029,-0.0042,-0.0053,-0.0052,-0.0032,-0.0027,-0.0058,-0.0062,-0.0067,-0.0079,-0.0067,-0.007,-0.0072,-0.0187,-0.0188,-0.0189,0,0,0,0,0,0,0.0016,0.0009,-0.0052,-0.0026,-0.0033,-0.0031,-0.0046,-0.0044,-0.0053,-0.0056,-0.0054,-0.004,-0.0056,-0.0062,-0.0125,-0.0082,-0.0072,-0.0075,-0.0185,-0.0187,-0.0188,-0.0158,0,0,0,0,0,0,0.0018,0.0009,-0.0004,-0.0026,-0.0035,-0.0098,-0.0049,-0.0047,-0.006,-0.0054,-0.0064,-0.0062,-0.0054,-0.012,-0.0128,-0.0087,-0.0078,-0.0184,-0.0186,-0.0188,-0.0158,-0.0159,-0.0159,0,0,0,0,0,0.0021,-0.0008,-0.0005,-0.0012,-0.0052,-0.01,-0.0106,-0.0094,-0.0064,-0.0087,-0.01,-0.0062,-0.0134,-0.0126,-0.0135,-0.0093,-0.0183,-0.0185,-0.0188,-0.0158,-0.0159,-0.0159,0,0,0,0,0,0,0.0017,-0.0007,-0.0003,-0.0038,-0.0069,-0.0091,-0.0111,-0.0105,-0.0135,-0.0126,-0.0115,-0.0118,-0.0147,-0.0152,-0.0142,-0.0135,-0.0137,-0.0141,-0.0111,-0.0112,-0.0112,-0.0043,-0.0081,0,0,0,0,0,0.0007,-0.0015,-0.0045,-0.0074,-0.0091,-0.0105,-0.0122,-0.012,-0.0146,-0.0153,-0.0162,-0.0165,-0.0169,-0.0168,-0.0195,-0.0219,-0.0198,-0.0189,-0.0189,-0.0189,-0.0142,-0.0068,-0.0055,-0.0196,-0.0196,-0.0196,0,0,-0.0001,-0.0018,-0.0029,-0.0076,-0.0095,-0.0152,-0.0108,-0.0144,-0.0194,-0.0156,-0.0224,-0.0192,-0.0187,-0.0199,-0.0206,-0.0191,-0.0163,-0.0192,-0.0192,-0.0143,-0.0068,-0.0054,-0.0041,-0.0198,-0.0197,-0.0197,0,0,-0.0037,-0.0048,-0.0084,-0.0123,-0.0163,-0.0184,-0.0197,-0.0231,-0.0246,-0.0316,-0.0269,-0.0226,-0.0281,-0.0226,-0.0212,-0.0245,-0.0184,-0.0227,-0.015,-0.008,-0.0066,-0.0052,-0.01,-0.0091,-0.0205,-0.0205,-0.0205,0,-0.0042,-0.0099,-0.0105,-0.0163,-0.0204,-0.0203,-0.027,-0.0305,-0.0355,-0.0378,-0.0345,-0.032,-0.029,-0.0249,-0.0189,-0.0238,-0.0205,-0.0143,-0.0073,-0.0059,-0.0046,-0.0097,-0.0087,-0.0204,-0.0204,-0.0204,-0.0204,0,-0.0117,-0.0169,-0.0199,-0.0271,-0.032,-0.0375,-0.0427,-0.0467,-0.0471,-0.0491,-0.0475,-0.0401,-0.0337,-0.031,-0.0229,-0.0098,-0.0116,-0.0097,-0.0056,-0.0029,-0.0088,-0.0078,-0.0202,-0.0202,-0.0203,-0.0203,0,0,-0.012,-0.0225,-0.0241,-0.0292,-0.0381,-0.0428,-0.052,-0.0595,-0.0636,-0.0618,-0.0618,-0.0504,-0.0367,-0.033,-0.0201,-0.0078,0.0054,0.0024,0.0027,0.0002,0.0166,0.0098,0.01,0.0135,0.0139,0.0142,0.0054,0,-0.0177,-0.0288,-0.034,-0.0463,-0.0525,-0.0572,-0.066,-0.0725,-0.0749,-0.0756,-0.063,-0.0564,-0.0412,-0.0271,-0.0131,0.0028,0.0101,0.0072,0.0123,0.0122,0.0084,0.0119,0.0155,0.0061,0.0063,0.0065,0.0066,0,-0.0248,-0.031,-0.0427,-0.0551,-0.0585,-0.067,-0.0776,-0.0845,-0.0872,-0.0852,-0.073,-0.0612,-0.0372,-0.0243,0.001,0.0013,0.013,0.021,0.0207,0.0167,0.0079,0.0048,0.0084,0.0083,0.0082,0.008,0.0079,0,-0.0247,-0.0383,-0.0469,-0.0517,-0.0652,-0.0725,-0.0796,-0.0882,-0.092,-0.0843,-0.0786,-0.0596,-0.0414,-0.022,0.0001,0.0075,0.0191,0.0256,0.023,0.0218,0.0293,0.0281,0.0395,0.0395,0.0395,0.0395,0.0395,0,-0.0301,-0.0379,-0.0479,-0.0536,-0.0659,-0.0739,-0.0864,-0.0896,-0.0908,-0.0906,-0.0757,-0.0646,-0.035,-0.0246,-0.0061,0.0085,0.0116,0.0263,0.0232,0.0284,0.0274,0.0293,0.0282,0.0392,0.0392,0.0393,0.0394,0,-0.0321,-0.0376,-0.0479,-0.0611,-0.0668,-0.075,-0.09,-0.0947,-0.0939,-0.0896,-0.0808,-0.0643,-0.0451,-0.0343,-0.0098,-0.0008,0.0116,0.0122,0.0052,0.0012,0.0108,0.0099,0.0164,0.0161,0.016,0.0158,0.0157,0,-0.0353,-0.0398,-0.0521,-0.0574,-0.0653,-0.0788,-0.0867,-0.0937,-0.0932,-0.0883,-0.0795,-0.0652,-0.0524,-0.0348,-0.0194,-0.0055,0.0002,-0.0002,0.0234,0.0141,0.0104,0.0098,0.0092,0.0154,0.0153,0.0153,0.0152,0,-0.0408,-0.043,-0.0502,-0.0586,-0.0678,-0.0791,-0.0875,-0.0874,-0.0882,-0.0868,-0.0724,-0.0606,-0.0488,-0.0308,-0.0286,-0.0146,-0.0001,-0.0018,-0.0007,0.0215,0.013,0.0093,0.0089,0.0146,0.0147,0.0147,0.0148,0,-0.0436,-0.0481,-0.0531,-0.0609,-0.0689,-0.0741,-0.0827,-0.0808,-0.0822,-0.0722,-0.0691,-0.0577,-0.0502,-0.0365,-0.0316,-0.0229,-0.0092,0.0004,0.0017,0.0025,0.0041,-0.0084,-0.0135,0,0,0,0,0,-0.0458,-0.0492,-0.0555,-0.0638,-0.0688,-0.0734,-0.0784,-0.083,-0.0827,-0.0699,-0.0694,-0.0573,-0.0432,-0.0383,-0.0285,-0.031,-0.0103,-0.0193,0.0008,0.011,0.0117,0.016,0,0,0,0,0,0,-0.0478,-0.0531,-0.0549,-0.0607,-0.0647,-0.0724,-0.0747,-0.0758,-0.0684,-0.0655,-0.0577,-0.0532,-0.0405,-0.048,-0.0276,-0.0256,-0.0108,-0.0135,-0.0132,0.0106,0.0112,0.0118,0.0165,0,0,0,0,0]}]]